sat.trackr.live / text

‹ back to catalog

STARLINK-3833

NORAD 52578 · 2022-051AU

PAYLOAD ACTIVE UNKNOWN

§ Identity

Operator
Country
US
Launch date
2022-05-13
Launch site
AFWTR
Launch vehicle
Mass (kg)
RCS (m²)

Purposes: comms

External: N2YO · Heavens-Above · Gunter

§ Orbital elements

Epoch: 2026-05-25T01:00:38.255616Z

Period
95.44 min
Inclination
53.2136°
Eccentricity
0.0001229
Mean motion
15.08835945 rev/d
Perigee alt
538.9 km
Apogee alt
540.6 km
Semi-major
6,917.9 km
B*
-1.6348e-5
RAAN
151.3608°
Arg perigee
69.7300°
Mean anomaly
290.3825°
Rev number
22,290

§ Raw data

STARLINK-38331 52578U 22051AU  26145.04210944 -.00000548  00000+0 -16348-4 0  99932 52578  53.2136 151.3608 0001229  69.7300 290.3825 15.08835945222904

JSON: /api/v1/satellites/52578 · /tle

For live sub-satellite position, see the globe view (requires WebGL).

§ Visibility from observer

Set your observer location to see the next 7 days of passes ≥ 10°. The values pass through the URL so the page stays shareable.

No JS? Fill the form by hand. The geolocation button needs JavaScript.